Location: Pedholt
(56.0260°N, 10.2097°E)
Time: 06:15:46
(UTC+00:00)

Cosmos 1933 Rocket - Pass Details

Date: 14 July 2020
Orbit: 607 x 629 km, 82.5° (Epoch: 07 August)

Event Time Altitude Azimuth Distance (km) Brightness Sun altitude
Exits shadow 00:23:24 16° 180° (S) 1,620 5.1 -11.4°
Maximum altitude 00:26:51 70° 99° (E) 655 3.7 -11.2°
Drops below altitude 10° 00:31:13 10° 16° (NNE) 1,979 7.8 -11.1°
Sets 00:33:27 0° 14° (NNE) 2,891 9.3 -11.0°
